Weather in Staromikhaylovskoye

Russia / Kaluga Oblast     55°12′46″N   36°41′48″E
temp.,
°C
wind,
m/s
gust,
m/s
humid.,
%
clouds,
%
prec.,
mm/h
press.,
hPa
HPBL,
m
29 may, sun
sun2900:00+5sw39965 0.0 1007202
03:00+5sw3997100 0.0 1008235
06:00+6sw399330 0.0 1008349
09:00+11wsw567143 0.1 10101126
12:00+13wsw575836 0.8 10111743
15:00+16wsw584399 1.7 10112543
18:00+13wsw47625 0.4 10131167
21:00+8wsw23880 0.5 101548
30 may, mon
mon3000:00+6wsw24940 0.0 101762
03:00+5w22955 0.0 101837
06:00+7sw24881 0.0 1020112
09:00+13sw23605 0.0 1020722
12:00+17sw33497 0.0 10201586
15:00+19sw2346100 0.0 10191918
18:00+14sse3773100 0.1 1019270
21:00+12ssw3891100 0.5 1020247
31 may, tue
tue3100:00+11e3895100 0.4 1019229
03:00+11se41295100 1.0 1018542
06:00+12se51198100 6.9 1017477
09:00+13se41097100 7.9 1017529
12:00+13se4999100 0.3 1017454
15:00+14sse3799100 1.3 1017376
18:00+14e2399100 3.9 1017168
21:00+14e129977 8.6 101741
1 june, wed
wed100:00+13n1299100 0.1 101740
03:00+13nw249955 0.1 1018107
06:00+11nw38954 0.0 1020243
09:00+16nw35710 0.0 1020566
12:00+20n23470 0.0 10201461
15:00+22w1143100 0.0 10201940
18:00+21wnw1161100 0.0 1020201
21:00+14ene11810 0.0 102011
2 june, thu
thu200:00+12se22929 0.0 102013
03:00+11ese2496100 0.0 102076
06:00+13ese259235 0.0 1019146
09:00+19sse237232 0.0 1018753
12:00+22ssw355114 0.1 10161984
15:00+23wsw454543 0.1 10161791
18:00+22sw35605 0.0 1015964
21:00+16wsw238754 0.1 101548